Location: Kermapucano
(48.0667°N, 3.3000°W)
Time: 20:54:43
(UTC+00:00)

Cosmos 1151 Rocket - Pass Details

Date: 29 November 2020
Orbit: 593 x 615 km, 82.5° (Epoch: 27 January)

Event Time Altitude Azimuth Distance (km) Brightness Sun altitude
Exits shadow 05:53:53 21° 235° (SW) 1,356 4.4 -17.1°
Drops below altitude 10° 05:55:51 10° 213° (SSW) 1,935 5.4 -16.8°
Sets 05:58:17 0° 201° (SSW) 2,835 6.4 -16.4°
